Total_Precipitation_Accumulation
0.52 0.83 1.28 1.85 2.28 2.51 2.57 2.66 2.64 2.67 2.72 2.73 2.78 2.96 3.15 3.23 3.22 3.31 3.33 3.19 3.09 3.12 3.24 3.21 3.12 2.87 2.68 2.58 2.53 2.44 2.23 1.99 1.82 1.81 1.76 1.59 1.40 1.31 1.21 1.11 1.10 1.04 0.98
0.57 0.91 1.27 1.64 1.97 2.26 2.44 2.56 2.53 2.72 2.96 3.30 3.72 4.05 4.25 4.17 4.06 4.00 3.91 3.78 3.66 3.57 3.49 3.44 3.25 3.03 2.83 2.62 2.46 2.38 2.28 2.11 1.94 1.84 1.86 1.66 1.47 1.21 1.07 1.04 0.95 0.88 0.85
0.63 0.89 1.08 1.32 1.58 1.93 2.19 2.37 2.60 3.03 3.49 4.00 4.69 5.16 5.08 4.76 4.61 4.34 4.24 4.01 3.72 3.65 3.63 3.37 3.18 2.99 2.79 2.64 2.44 2.36 2.31 2.12 1.99 1.87 1.85 1.68 1.49 1.28 1.11 0.95 0.86 0.82 0.79
0.54 0.72 0.96 1.17 1.40 1.77 2.14 2.44 2.82 3.34 3.95 4.44 4.90 5.21 5.25 5.06 4.84 4.40 4.04 3.65 3.32 3.14 3.03 2.93 2.75 2.63 2.49 2.34 2.20 2.18 2.12 1.97 1.79 1.68 1.50 1.38 1.26 1.22 1.10 0.93 0.83 0.82 0.83
0.45 0.54 0.70 0.93 1.22 1.63 2.07 2.43 2.77 3.34 3.90 4.42 4.78 4.99 5.11 5.01 4.69 4.09 3.51 3.15 2.86 2.64 2.43 2.25 2.16 2.12 2.01 1.83 1.68 1.64 1.61 1.54 1.46 1.41 1.31 1.21 1.12 1.06 1.01 0.95 0.85 0.80 0.76
0.41 0.49 0.60 0.76 1.05 1.40 1.77 2.14 2.49 3.14 3.78 4.31 4.70 4.94 4.97 4.69 4.16 3.57 3.06 2.77 2.54 2.31 2.11 1.98 1.80 1.68 1.55 1.38 1.21 1.16 1.19 1.24 1.25 1.21 1.15 1.02 0.95 0.90 0.90 0.88 0.82 0.78 0.75
0.42 0.46 0.57 0.68 0.94 1.27 1.58 1.93 2.30 2.74 3.22 3.61 3.85 4.00 4.02 3.84 3.54 3.18 2.77 2.45 2.25 2.04 1.80 1.55 1.39 1.28 1.22 1.14 1.03 0.93 0.92 0.98 1.02 0.99 0.96 0.93 0.85 0.80 0.84 0.90 0.87 0.80 0.74
0.48 0.51 0.60 0.70 0.82 1.05 1.35 1.70 2.00 2.29 2.53 2.69 2.87 2.88 2.83 2.76 2.63 2.33 1.99 1.74 1.52 1.39 1.22 1.05 0.98 0.93 0.92 0.91 0.88 0.80 0.76 0.79 0.88 0.92 0.93 0.94 0.93 0.92 0.93 0.95 0.98 1.02 0.91
0.52 0.57 0.66 0.71 0.81 0.95 1.15 1.35 1.48 1.67 1.74 1.70 1.71 1.75 1.78 1.75 1.63 1.47 1.25 1.02 0.85 0.76 0.70 0.64 0.62 0.57 0.60 0.66 0.69 0.70 0.71 0.71 0.73 0.76 0.77 0.82 0.87 0.89 0.88 0.89 0.93 1.02 1.03
0.52 0.57 0.66 0.73 0.79 0.85 1.02 1.13 1.13 1.12 1.16 1.19 1.19 1.15 1.16 1.15 1.13 1.07 0.97 0.83 0.71 0.60 0.51 0.48 0.49 0.44 0.43 0.46 0.50 0.55 0.60 0.65 0.65 0.63 0.63 0.64 0.66 0.76 0.84 0.92 0.94 0.97 1.03
0.62 0.67 0.67 0.65 0.66 0.69 0.73 0.79 0.84 0.87 0.88 0.89 0.91 0.89 0.81 0.77 0.75 0.77 0.75 0.68 0.60 0.53 0.46 0.42 0.41 0.40 0.37 0.36 0.38 0.41 0.45 0.52 0.55 0.52 0.51 0.54 0.57 0.62 0.67 0.75 0.84 0.93 1.01
0.72 0.68 0.64 0.61 0.61 0.66 0.69 0.69 0.71 0.71 0.73 0.73 0.71 0.71 0.63 0.58 0.57 0.57 0.56 0.52 0.48 0.48 0.47 0.45 0.43 0.39 0.35 0.32 0.33 0.34 0.34 0.37 0.40 0.42 0.42 0.41 0.42 0.48 0.53 0.61 0.66 0.72 0.81
0.94 0.83 0.75 0.67 0.63 0.64 0.65 0.61 0.58 0.54 0.50 0.47 0.47 0.52 0.53 0.50 0.52 0.49 0.48 0.50 0.47 0.44 0.42 0.42 0.41 0.37 0.35 0.35 0.35 0.31 0.31 0.31 0.31 0.34 0.36 0.37 0.40 0.44 0.49 0.56 0.60 0.64 0.69
0.99 0.85 0.80 0.72 0.68 0.63 0.58 0.53 0.50 0.46 0.42 0.39 0.37 0.40 0.43 0.43 0.44 0.45 0.44 0.42 0.40 0.38 0.33 0.30 0.31 0.32 0.31 0.28 0.27 0.26 0.26 0.26 0.26 0.27 0.29 0.31 0.37 0.43 0.48 0.51 0.55 0.63 0.72
1.05 0.97 0.87 0.78 0.70 0.66 0.58 0.53 0.48 0.41 0.38 0.39 0.39 0.40 0.42 0.40 0.41 0.42 0.41 0.37 0.33 0.30 0.26 0.23 0.24 0.26 0.25 0.22 0.21 0.21 0.20 0.22 0.25 0.27 0.27 0.26 0.32 0.40 0.44 0.47 0.57 0.69 0.79
1.07 1.02 0.92 0.81 0.73 0.72 0.69 0.63 0.57 0.48 0.44 0.47 0.48 0.44 0.42 0.42 0.43 0.41 0.37 0.32 0.30 0.27 0.24 0.23 0.21 0.19 0.17 0.18 0.18 0.17 0.21 0.25 0.30 0.34 0.31 0.25 0.24 0.28 0.33 0.41 0.49 0.58 0.71
1.19 1.14 1.03 0.92 0.86 0.80 0.73 0.68 0.61 0.55 0.51 0.51 0.48 0.44 0.39 0.37 0.36 0.33 0.33 0.28 0.27 0.26 0.24 0.22 0.21 0.20 0.15 0.12 0.12 0.15 0.18 0.27 0.34 0.37 0.35 0.28 0.23 0.28 0.33 0.35 0.38 0.46 0.58
1.30 1.19 1.11 1.05 1.00 0.90 0.80 0.71 0.61 0.53 0.48 0.47 0.43 0.36 0.33 0.34 0.32 0.31 0.31 0.28 0.29 0.32 0.27 0.23 0.22 0.23 0.14 0.10 0.10 0.13 0.20 0.30 0.32 0.30 0.30 0.35 0.39 0.32 0.29 0.31 0.43 0.58 0.67
1.30 1.20 1.10 1.03 0.96 0.88 0.77 0.65 0.57 0.47 0.41 0.39 0.35 0.30 0.26 0.27 0.27 0.27 0.30 0.31 0.33 0.37 0.30 0.23 0.24 0.24 0.17 0.10 0.11 0.14 0.22 0.28 0.28 0.26 0.25 0.28 0.36 0.31 0.34 0.44 0.63 0.83 0.98
1.12 1.09 1.04 0.96 0.86 0.75 0.62 0.55 0.52 0.45 0.36 0.32 0.29 0.26 0.26 0.27 0.28 0.30 0.32 0.29 0.32 0.38 0.29 0.21 0.21 0.20 0.17 0.10 0.11 0.16 0.21 0.28 0.29 0.31 0.30 0.31 0.33 0.33 0.44 0.55 0.78 0.99 1.10
0.99 0.95 0.88 0.83 0.73 0.61 0.51 0.47 0.45 0.40 0.27 0.21 0.21 0.22 0.25 0.25 0.23 0.28 0.32 0.31 0.32 0.36 0.32 0.26 0.24 0.20 0.15 0.11 0.10 0.12 0.17 0.23 0.30 0.33 0.38 0.40 0.40 0.38 0.48 0.65 0.82 1.03 1.07
0.90 0.85 0.78 0.67 0.55 0.44 0.41 0.40 0.34 0.25 0.17 0.17 0.19 0.20 0.20 0.17 0.17 0.26 0.30 0.31 0.35 0.34 0.32 0.30 0.27 0.22 0.18 0.12 0.08 0.08 0.10 0.16 0.31 0.42 0.45 0.44 0.42 0.44 0.60 0.73 0.91 1.14 1.24
0.71 0.64 0.54 0.48 0.40 0.34 0.34 0.32 0.24 0.17 0.14 0.18 0.22 0.21 0.19 0.18 0.17 0.21 0.24 0.26 0.33 0.33 0.30 0.28 0.27 0.23 0.21 0.13 0.06 0.06 0.08 0.12 0.23 0.38 0.49 0.49 0.44 0.60 0.88 1.03 1.14 1.31 1.37
0.54 0.46 0.40 0.38 0.34 0.27 0.24 0.22 0.15 0.13 0.16 0.23 0.23 0.21 0.22 0.23 0.19 0.18 0.16 0.18 0.22 0.24 0.27 0.27 0.27 0.25 0.23 0.15 0.10 0.10 0.12 0.15 0.19 0.30 0.45 0.57 0.62 0.78 1.07 1.27 1.37 1.42 1.32
0.37 0.33 0.33 0.32 0.27 0.21 0.18 0.15 0.13 0.13 0.20 0.22 0.19 0.18 0.18 0.19 0.20 0.16 0.11 0.09 0.09 0.08 0.14 0.21 0.23 0.23 0.18 0.10 0.10 0.12 0.14 0.16 0.20 0.26 0.41 0.60 0.71 0.91 1.12 1.24 1.26 1.21 1.11
0.23 0.22 0.22 0.21 0.18 0.16 0.14 0.11 0.10 0.10 0.17 0.19 0.16 0.14 0.13 0.12 0.11 0.14 0.12 0.06 0.04 0.04 0.06 0.09 0.11 0.12 0.09 0.07 0.07 0.09 0.13 0.17 0.23 0.31 0.50 0.67 0.77 0.92 1.04 1.11 1.09 1.01 0.92